Zurück zum Katalog

FENGYUN 1C DEB

LostPO
NORAD 38131·DEBRIS·🇨🇳 China

Gestartet May 10, 1999 von Taiyuan Satellite Launch Center

Loading…

Nächste Überflüge (nächste 24 Stunden)

TLE

VeraltetSource: Space-Track

Epoche: Dec 24, 2020, 20:58 UTC

1 38131U 99025EQC 20359.87416144  .00001148  00000-0  73321-3 0  9998
2 38131  97.8938  35.4924 0125379 234.5870 124.3538 14.01362866554282

Verfolge FENGYUN 1C DEB in Echtzeit mit AllMySat

Download on the App Store